Year,Month,Day,Hour,Minute,Value (Times are PST for temperature in C)
2012,11,29,00,00,7.20
2012,11,29,00,01,7.20
2012,11,29,00,02,7.20
2012,11,29,00,03,7.20
2012,11,29,00,04,7.20
2012,11,29,00,05,7.20
2012,11,29,00,06,7.20
2012,11,29,00,07,7.20
2012,11,29,00,08,7.20
2012,11,29,00,09,7.20
2012,11,29,00,10,7.20
2012,11,29,00,11,7.20
2012,11,29,00,12,7.20
2012,11,29,00,13,7.20
2012,11,29,00,14,7.20
2012,11,29,00,15,7.20
2012,11,29,00,16,7.20
2012,11,29,00,17,7.20
2012,11,29,00,18,7.20
2012,11,29,00,19,7.20
2012,11,29,00,20,7.20
2012,11,29,00,21,7.10
2012,11,29,00,22,7.10
2012,11,29,00,23,7.10
2012,11,29,00,24,7.10
2012,11,29,00,25,7.10
2012,11,29,00,26,7.10
2012,11,29,00,27,7.10
2012,11,29,00,28,7.10
2012,11,29,00,29,7.10
2012,11,29,00,30,7.10
2012,11,29,00,31,7.10
2012,11,29,00,32,7.10
2012,11,29,00,33,7.10
2012,11,29,00,34,7.10
2012,11,29,00,35,7.10
2012,11,29,00,36,7.20
2012,11,29,00,37,7.20
2012,11,29,00,38,7.20
2012,11,29,00,39,7.20
2012,11,29,00,40,7.20
2012,11,29,00,41,7.20
2012,11,29,00,42,7.20
2012,11,29,00,43,7.20
2012,11,29,00,44,7.20
2012,11,29,00,45,7.20
2012,11,29,00,46,7.20
2012,11,29,00,47,7.20
2012,11,29,00,48,7.20
2012,11,29,00,49,7.20
2012,11,29,00,50,7.20
2012,11,29,00,51,7.20
2012,11,29,00,52,7.20
2012,11,29,00,53,7.20
2012,11,29,00,54,7.20
2012,11,29,00,55,7.20
2012,11,29,00,56,7.20
2012,11,29,00,57,7.20
2012,11,29,00,58,7.20
2012,11,29,00,59,7.20
2012,11,29,01,00,7.20
2012,11,29,01,01,7.20
2012,11,29,01,02,7.20
2012,11,29,01,03,7.20
2012,11,29,01,04,7.20
2012,11,29,01,05,7.30
2012,11,29,01,06,7.30
2012,11,29,01,07,7.30
2012,11,29,01,08,7.30
2012,11,29,01,09,7.30
2012,11,29,01,10,7.30
2012,11,29,01,11,7.30
2012,11,29,01,12,7.30
2012,11,29,01,13,7.40
2012,11,29,01,14,7.40
2012,11,29,01,15,7.40
2012,11,29,01,16,7.40
2012,11,29,01,17,7.40
2012,11,29,01,18,7.40
2012,11,29,01,19,7.40
2012,11,29,01,20,7.40
2012,11,29,01,21,7.40
2012,11,29,01,22,7.40
2012,11,29,01,23,7.30
2012,11,29,01,24,7.30
2012,11,29,01,25,7.30
2012,11,29,01,26,7.30
2012,11,29,01,27,7.30
2012,11,29,01,28,7.30
2012,11,29,01,29,7.30
2012,11,29,01,30,7.30
2012,11,29,01,31,7.30
2012,11,29,01,32,7.30
2012,11,29,01,33,7.30
2012,11,29,01,34,7.30
2012,11,29,01,35,7.30
2012,11,29,01,36,7.30
2012,11,29,01,37,7.20
2012,11,29,01,38,7.20
2012,11,29,01,39,7.20
2012,11,29,01,40,7.20
2012,11,29,01,41,7.10
2012,11,29,01,42,7.10
2012,11,29,01,43,7.00
2012,11,29,01,44,7.00
2012,11,29,01,45,7.00
2012,11,29,01,46,6.90
2012,11,29,01,47,6.90
2012,11,29,01,48,6.90
2012,11,29,01,49,6.90
2012,11,29,01,50,6.90
2012,11,29,01,51,6.90
2012,11,29,01,52,6.90
2012,11,29,01,53,6.90
2012,11,29,01,54,6.90
2012,11,29,01,55,6.90
2012,11,29,01,56,6.90
2012,11,29,01,57,6.90
2012,11,29,01,58,6.90
2012,11,29,01,59,6.90
2012,11,29,02,00,6.90
2012,11,29,02,01,6.90
2012,11,29,02,02,6.90
2012,11,29,02,03,6.90
2012,11,29,02,04,7.00
2012,11,29,02,05,7.00
2012,11,29,02,06,7.00
2012,11,29,02,07,6.90
2012,11,29,02,08,6.90
2012,11,29,02,09,6.90
2012,11,29,02,10,6.90
2012,11,29,02,11,6.90
2012,11,29,02,12,6.90
2012,11,29,02,13,6.90
2012,11,29,02,14,6.90
2012,11,29,02,15,6.90
2012,11,29,02,16,6.90
2012,11,29,02,17,6.90
2012,11,29,02,18,6.90
2012,11,29,02,19,6.90
2012,11,29,02,20,6.90
2012,11,29,02,21,6.90
2012,11,29,02,22,6.90
2012,11,29,02,23,6.90
2012,11,29,02,24,6.90
2012,11,29,02,25,6.90
2012,11,29,02,26,6.90
2012,11,29,02,27,6.90
2012,11,29,02,28,6.90
2012,11,29,02,29,6.90
2012,11,29,02,30,6.90
2012,11,29,02,31,6.90
2012,11,29,02,32,6.80
2012,11,29,02,33,6.80
2012,11,29,02,34,6.80
2012,11,29,02,35,6.80
2012,11,29,02,36,6.80
2012,11,29,02,37,6.80
2012,11,29,02,38,6.90
2012,11,29,02,39,6.90
2012,11,29,02,40,6.90
2012,11,29,02,41,6.90
2012,11,29,02,42,6.90
2012,11,29,02,43,6.90
2012,11,29,02,44,6.90
2012,11,29,02,45,6.90
2012,11,29,02,46,6.90
2012,11,29,02,47,6.90
2012,11,29,02,48,6.90
2012,11,29,02,49,6.90
2012,11,29,02,50,7.00
2012,11,29,02,51,7.00
2012,11,29,02,52,7.00
2012,11,29,02,53,7.00
2012,11,29,02,54,7.00
2012,11,29,02,55,7.00
2012,11,29,02,56,7.00
2012,11,29,02,57,7.00
2012,11,29,02,58,7.00
2012,11,29,02,59,7.00
2012,11,29,03,00,7.00
2012,11,29,03,01,7.00
2012,11,29,03,02,7.00
2012,11,29,03,03,6.90
2012,11,29,03,04,7.00
2012,11,29,03,05,7.00
2012,11,29,03,06,7.10
2012,11,29,03,07,7.10
2012,11,29,03,08,7.20
2012,11,29,03,09,7.20
2012,11,29,03,10,7.30
2012,11,29,03,11,7.30
2012,11,29,03,12,7.40
2012,11,29,03,13,7.40
2012,11,29,03,14,7.50
2012,11,29,03,15,7.50
2012,11,29,03,16,7.50
2012,11,29,03,17,7.60
2012,11,29,03,18,7.60
2012,11,29,03,19,7.60
2012,11,29,03,20,7.70
2012,11,29,03,21,7.70
2012,11,29,03,22,7.80
2012,11,29,03,23,7.80
2012,11,29,03,24,7.90
2012,11,29,03,25,7.90
2012,11,29,03,26,7.90
2012,11,29,03,27,8.00
2012,11,29,03,28,8.00
2012,11,29,03,29,8.00
2012,11,29,03,30,8.10
2012,11,29,03,31,8.20
2012,11,29,03,32,8.20
2012,11,29,03,33,8.20
2012,11,29,03,34,8.30
2012,11,29,03,35,8.30
2012,11,29,03,36,8.30
2012,11,29,03,37,8.30
2012,11,29,03,38,8.30
2012,11,29,03,39,8.30
2012,11,29,03,40,8.30
2012,11,29,03,41,8.30
2012,11,29,03,42,8.40
2012,11,29,03,43,8.40
2012,11,29,03,44,8.40
2012,11,29,03,45,8.40
2012,11,29,03,46,8.40
2012,11,29,03,47,8.40
2012,11,29,03,48,8.40
2012,11,29,03,49,8.40
2012,11,29,03,50,8.30
2012,11,29,03,51,8.30
2012,11,29,03,52,8.30
2012,11,29,03,53,8.30
2012,11,29,03,54,8.30
2012,11,29,03,55,8.30
2012,11,29,03,56,8.40
2012,11,29,03,57,8.40
2012,11,29,03,58,8.40
2012,11,29,03,59,8.40
2012,11,29,04,00,8.40
2012,11,29,04,01,8.40
2012,11,29,04,02,8.40
2012,11,29,04,03,8.40
2012,11,29,04,04,8.40
2012,11,29,04,05,8.40
2012,11,29,04,06,8.50
2012,11,29,04,07,8.50
2012,11,29,04,08,8.50
2012,11,29,04,09,8.50
2012,11,29,04,10,8.60
2012,11,29,04,11,8.60
2012,11,29,04,12,8.60
2012,11,29,04,13,8.70
2012,11,29,04,14,8.70
2012,11,29,04,15,8.70
2012,11,29,04,16,8.80
2012,11,29,04,17,8.80
2012,11,29,04,18,8.80
2012,11,29,04,19,8.80
2012,11,29,04,20,8.90
2012,11,29,04,21,8.90
2012,11,29,04,22,8.90
2012,11,29,04,23,8.90
2012,11,29,04,24,8.90
2012,11,29,04,25,9.00
2012,11,29,04,26,9.00
2012,11,29,04,27,9.00
2012,11,29,04,28,9.10
2012,11,29,04,29,9.10
2012,11,29,04,30,9.10
2012,11,29,04,31,9.10
2012,11,29,04,32,9.20
2012,11,29,04,33,9.20
2012,11,29,04,34,9.20
2012,11,29,04,35,9.20
2012,11,29,04,36,9.20
2012,11,29,04,37,9.20
2012,11,29,04,38,9.20
2012,11,29,04,39,9.20
2012,11,29,04,40,9.20
2012,11,29,04,41,9.20
2012,11,29,04,42,9.20
2012,11,29,04,43,9.20
2012,11,29,04,44,9.20
2012,11,29,04,45,9.20
2012,11,29,04,46,9.20
2012,11,29,04,47,9.20
2012,11,29,04,48,9.20
2012,11,29,04,49,9.20
2012,11,29,04,50,9.20
2012,11,29,04,51,9.20
2012,11,29,04,52,9.20
2012,11,29,04,53,9.20
2012,11,29,04,54,9.20
2012,11,29,04,55,9.20
2012,11,29,04,56,9.30
2012,11,29,04,57,9.30
2012,11,29,04,58,9.30
2012,11,29,04,59,9.30
2012,11,29,05,00,9.30
2012,11,29,05,01,9.40
2012,11,29,05,02,9.30
2012,11,29,05,03,9.40
2012,11,29,05,04,9.40
2012,11,29,05,05,9.40
2012,11,29,05,06,9.40
2012,11,29,05,07,9.40
2012,11,29,05,08,9.40
2012,11,29,05,09,9.50
2012,11,29,05,10,9.50
2012,11,29,05,11,9.50
2012,11,29,05,12,9.60
2012,11,29,05,13,9.70
2012,11,29,05,14,9.80
2012,11,29,05,15,9.80
2012,11,29,05,16,9.90
2012,11,29,05,17,9.90
2012,11,29,05,18,9.90
2012,11,29,05,19,10.00
2012,11,29,05,20,10.10
2012,11,29,05,21,10.10
2012,11,29,05,22,10.20
2012,11,29,05,23,10.20
2012,11,29,05,24,10.30
2012,11,29,05,25,10.30
2012,11,29,05,26,10.30
2012,11,29,05,27,10.40
2012,11,29,05,28,10.40
2012,11,29,05,29,10.50
2012,11,29,05,30,10.50
2012,11,29,05,31,10.50
2012,11,29,05,32,10.50
2012,11,29,05,33,10.60
2012,11,29,05,34,10.60
2012,11,29,05,35,10.70
2012,11,29,05,36,10.70
2012,11,29,05,37,10.70
2012,11,29,05,38,10.70
2012,11,29,05,39,10.80
2012,11,29,05,40,10.80
2012,11,29,05,41,10.80
2012,11,29,05,42,10.80
2012,11,29,05,43,10.80
2012,11,29,05,44,10.80
2012,11,29,05,45,10.80
2012,11,29,05,46,10.80
2012,11,29,05,47,10.80
2012,11,29,05,48,10.80
2012,11,29,05,49,10.80
2012,11,29,05,50,10.80
2012,11,29,05,51,10.80
2012,11,29,05,52,10.80
2012,11,29,05,53,10.80
2012,11,29,05,54,10.80
2012,11,29,05,55,10.80
2012,11,29,05,56,10.80
2012,11,29,05,57,10.80
2012,11,29,05,58,10.90
2012,11,29,05,59,10.90
2012,11,29,06,00,11.00
2012,11,29,06,01,11.00
2012,11,29,06,02,11.10
2012,11,29,06,03,11.10
2012,11,29,06,04,11.10
2012,11,29,06,05,11.10
2012,11,29,06,06,11.10
2012,11,29,06,07,11.10
2012,11,29,06,08,11.10
2012,11,29,06,09,11.10
2012,11,29,06,10,11.10
2012,11,29,06,11,11.10
2012,11,29,06,12,11.10
2012,11,29,06,13,11.10
2012,11,29,06,14,11.00
2012,11,29,06,15,11.00
2012,11,29,06,16,11.00
2012,11,29,06,17,11.00
2012,11,29,06,18,10.90
2012,11,29,06,19,10.90
2012,11,29,06,20,10.90
2012,11,29,06,21,10.90
2012,11,29,06,22,10.90
2012,11,29,06,23,10.90
2012,11,29,06,24,10.90
2012,11,29,06,25,10.90
2012,11,29,06,26,10.90
2012,11,29,06,27,11.00
2012,11,29,06,28,11.00
2012,11,29,06,29,11.00
2012,11,29,06,30,11.10
2012,11,29,06,31,11.10
2012,11,29,06,32,11.10
2012,11,29,06,33,11.10
2012,11,29,06,34,11.10
2012,11,29,06,35,11.20
2012,11,29,06,36,11.20
2012,11,29,06,37,11.20
2012,11,29,06,38,11.20
2012,11,29,06,39,11.20
2012,11,29,06,40,11.20
2012,11,29,06,41,11.20
2012,11,29,06,42,11.20
2012,11,29,06,43,11.20
2012,11,29,06,44,11.20
2012,11,29,06,45,11.20
2012,11,29,06,46,11.10
2012,11,29,06,47,11.10
2012,11,29,06,48,11.00
2012,11,29,06,49,11.00
2012,11,29,06,50,11.00
2012,11,29,06,51,10.90
2012,11,29,06,52,10.90
2012,11,29,06,53,10.90
2012,11,29,06,54,10.80
2012,11,29,06,55,10.80
2012,11,29,06,56,10.80
2012,11,29,06,57,10.80
2012,11,29,06,58,10.70
2012,11,29,06,59,10.70
2012,11,29,07,00,10.70
2012,11,29,07,01,10.70
2012,11,29,07,02,10.80
2012,11,29,07,03,10.90
2012,11,29,07,04,11.00
2012,11,29,07,05,11.20
2012,11,29,07,06,11.30
2012,11,29,07,07,11.40
2012,11,29,07,08,11.50
2012,11,29,07,09,11.60
2012,11,29,07,10,11.70
2012,11,29,07,11,11.70
2012,11,29,07,12,11.80
2012,11,29,07,13,11.80
2012,11,29,07,14,11.80
2012,11,29,07,15,11.80
2012,11,29,07,16,11.70
2012,11,29,07,17,11.70
2012,11,29,07,18,11.70
2012,11,29,07,19,11.70
2012,11,29,07,20,11.60
2012,11,29,07,21,11.60
2012,11,29,07,22,11.60
2012,11,29,07,23,11.50
2012,11,29,07,24,11.50
2012,11,29,07,25,11.40
2012,11,29,07,26,11.40
2012,11,29,07,27,11.40
2012,11,29,07,28,11.30
2012,11,29,07,29,11.30
2012,11,29,07,30,11.30
2012,11,29,07,31,11.30
2012,11,29,07,32,11.30
2012,11,29,07,33,11.30
2012,11,29,07,34,11.30
2012,11,29,07,35,11.30
2012,11,29,07,36,11.40
2012,11,29,07,37,11.40
2012,11,29,07,38,11.40
2012,11,29,07,39,11.30
2012,11,29,07,40,11.30
2012,11,29,07,41,11.30
2012,11,29,07,42,11.30
2012,11,29,07,43,11.20
2012,11,29,07,44,11.20
2012,11,29,07,45,11.20
2012,11,29,07,46,11.20
2012,11,29,07,47,11.20
2012,11,29,07,48,11.20
2012,11,29,07,49,11.20
2012,11,29,07,50,11.20
2012,11,29,07,51,11.20
2012,11,29,07,52,11.30
2012,11,29,07,53,11.30
2012,11,29,07,54,11.30
2012,11,29,07,55,11.30
2012,11,29,07,56,11.30
2012,11,29,07,57,11.30
2012,11,29,07,58,11.20
2012,11,29,07,59,11.20
2012,11,29,08,00,11.20
2012,11,29,08,01,11.20
2012,11,29,08,02,11.20
2012,11,29,08,03,11.20
2012,11,29,08,04,11.20
2012,11,29,08,05,11.20
2012,11,29,08,06,11.20
2012,11,29,08,07,11.30
2012,11,29,08,08,11.30
2012,11,29,08,09,11.30
2012,11,29,08,10,11.40
2012,11,29,08,11,11.40
2012,11,29,08,12,11.40
2012,11,29,08,13,11.50
2012,11,29,08,14,11.50
2012,11,29,08,15,11.50
2012,11,29,08,16,11.60
2012,11,29,08,17,11.60
2012,11,29,08,18,11.60
2012,11,29,08,19,11.60
2012,11,29,08,20,11.60
2012,11,29,08,21,11.60
2012,11,29,08,22,11.60
2012,11,29,08,23,11.60
2012,11,29,08,24,11.60
2012,11,29,08,25,11.50
2012,11,29,08,26,11.50
2012,11,29,08,27,11.50
2012,11,29,08,28,11.50
2012,11,29,08,29,11.50
2012,11,29,08,30,11.60
2012,11,29,08,31,11.60
2012,11,29,08,32,11.50
2012,11,29,08,33,11.50
2012,11,29,08,34,11.60
2012,11,29,08,35,11.50
2012,11,29,08,36,11.50
2012,11,29,08,37,11.50
2012,11,29,08,38,11.50
2012,11,29,08,39,11.50
2012,11,29,08,40,11.50
2012,11,29,08,41,11.50
2012,11,29,08,42,11.40
2012,11,29,08,43,11.40
2012,11,29,08,44,11.40
2012,11,29,08,45,11.30
2012,11,29,08,46,11.30
2012,11,29,08,47,11.30
2012,11,29,08,48,11.30
2012,11,29,08,49,11.20
2012,11,29,08,50,11.20
2012,11,29,08,51,11.20
2012,11,29,08,52,11.20
2012,11,29,08,53,11.10
2012,11,29,08,54,11.10
2012,11,29,08,55,11.10
2012,11,29,08,56,11.00
2012,11,29,08,57,11.00
2012,11,29,08,58,11.00
2012,11,29,08,59,11.00
2012,11,29,09,00,10.90
2012,11,29,09,01,10.90
2012,11,29,09,02,10.90
2012,11,29,09,03,10.90
2012,11,29,09,04,10.80
2012,11,29,09,05,10.80
2012,11,29,09,06,10.80
2012,11,29,09,07,10.80
2012,11,29,09,08,10.80
2012,11,29,09,09,10.80
2012,11,29,09,10,10.90
2012,11,29,09,11,10.90
2012,11,29,09,12,10.90
2012,11,29,09,13,10.90
2012,11,29,09,14,10.90
2012,11,29,09,15,11.00
2012,11,29,09,16,11.00
2012,11,29,09,17,11.00
2012,11,29,09,18,11.00
2012,11,29,09,19,11.10
2012,11,29,09,20,11.10
2012,11,29,09,21,11.10
2012,11,29,09,22,11.20
2012,11,29,09,23,11.20
2012,11,29,09,24,11.20
2012,11,29,09,25,11.20
2012,11,29,09,26,11.20
2012,11,29,09,27,11.30
2012,11,29,09,28,11.30
2012,11,29,09,29,11.30
2012,11,29,09,30,11.30
2012,11,29,09,31,11.30
2012,11,29,09,32,11.40
2012,11,29,09,33,11.40
2012,11,29,09,34,11.40
2012,11,29,09,35,11.40
2012,11,29,09,36,11.40
2012,11,29,09,37,11.50
2012,11,29,09,38,11.50
2012,11,29,09,39,11.50
2012,11,29,09,40,11.50
2012,11,29,09,41,11.50
2012,11,29,09,42,11.60
2012,11,29,09,43,11.60
2012,11,29,09,44,11.60
2012,11,29,09,45,11.50
2012,11,29,09,46,11.50
2012,11,29,09,47,11.50
2012,11,29,09,48,11.50
2012,11,29,09,49,11.40
2012,11,29,09,50,11.40
2012,11,29,09,51,11.40
2012,11,29,09,52,11.30
2012,11,29,09,53,11.30
2012,11,29,09,54,11.20
2012,11,29,09,55,11.20
2012,11,29,09,56,11.20
2012,11,29,09,57,11.20
2012,11,29,09,58,11.20
2012,11,29,09,59,11.10
2012,11,29,10,00,11.10
2012,11,29,10,01,11.10
2012,11,29,10,02,11.00
2012,11,29,10,03,11.00
2012,11,29,10,04,11.00
2012,11,29,10,05,10.90
2012,11,29,10,06,10.90
2012,11,29,10,07,10.90
2012,11,29,10,08,10.90
2012,11,29,10,09,10.80
2012,11,29,10,10,10.80
2012,11,29,10,11,10.80
2012,11,29,10,12,10.80
2012,11,29,10,13,10.70
2012,11,29,10,14,10.70
2012,11,29,10,15,10.70
2012,11,29,10,16,10.70
2012,11,29,10,17,10.70
2012,11,29,10,18,10.70
2012,11,29,10,19,10.70
2012,11,29,10,20,10.70
2012,11,29,10,21,10.70
2012,11,29,10,22,10.70
2012,11,29,10,23,10.70
2012,11,29,10,24,10.70
2012,11,29,10,25,10.70
2012,11,29,10,26,10.70
2012,11,29,10,27,10.70
2012,11,29,10,28,10.70
2012,11,29,10,29,10.70
2012,11,29,10,30,10.70
2012,11,29,10,31,10.70
2012,11,29,10,32,10.80
2012,11,29,10,33,10.80
2012,11,29,10,34,10.80
2012,11,29,10,35,10.80
2012,11,29,10,36,10.90
2012,11,29,10,37,10.90
2012,11,29,10,38,10.90
2012,11,29,10,39,11.00
2012,11,29,10,40,11.00
2012,11,29,10,41,11.10
2012,11,29,10,42,11.20
2012,11,29,10,43,11.20
2012,11,29,10,44,11.30
2012,11,29,10,45,11.40
2012,11,29,10,46,11.50
2012,11,29,10,47,11.60
2012,11,29,10,48,11.70
2012,11,29,10,49,11.70
2012,11,29,10,50,11.70
2012,11,29,10,51,11.70
2012,11,29,10,52,11.80
2012,11,29,10,53,11.80
2012,11,29,10,54,11.80
2012,11,29,10,55,11.80
2012,11,29,10,56,11.80
2012,11,29,10,57,11.80
2012,11,29,10,58,11.80
2012,11,29,10,59,11.70
2012,11,29,11,00,11.70
2012,11,29,11,01,11.80
2012,11,29,11,02,11.80
2012,11,29,11,03,11.70
2012,11,29,11,04,11.70
2012,11,29,11,05,11.70
2012,11,29,11,06,11.70
2012,11,29,11,07,11.70
2012,11,29,11,08,11.70
2012,11,29,11,09,11.70
2012,11,29,11,10,11.60
2012,11,29,11,11,11.60
2012,11,29,11,12,11.70
2012,11,29,11,13,11.70
2012,11,29,11,14,11.70
2012,11,29,11,15,11.80
2012,11,29,11,16,11.80
2012,11,29,11,17,11.80
2012,11,29,11,18,11.80
2012,11,29,11,19,11.80
2012,11,29,11,20,11.80
2012,11,29,11,21,11.80
2012,11,29,11,22,11.80
2012,11,29,11,23,11.80
2012,11,29,11,24,11.80
2012,11,29,11,25,11.80
2012,11,29,11,26,11.80
2012,11,29,11,27,11.70
2012,11,29,11,28,11.70
2012,11,29,11,29,11.70
2012,11,29,11,30,11.60
2012,11,29,11,31,11.60
2012,11,29,11,32,11.50
2012,11,29,11,33,11.50
2012,11,29,11,34,11.40
2012,11,29,11,35,11.40
2012,11,29,11,36,11.40
2012,11,29,11,37,11.30
2012,11,29,11,38,11.30
2012,11,29,11,39,11.30
2012,11,29,11,40,11.30
2012,11,29,11,41,11.30
2012,11,29,11,42,11.30
2012,11,29,11,43,11.30
2012,11,29,11,44,11.30
2012,11,29,11,45,11.30
2012,11,29,11,46,11.30
2012,11,29,11,47,11.30
2012,11,29,11,48,11.40
2012,11,29,11,49,11.40
2012,11,29,11,50,11.50
2012,11,29,11,51,11.50
2012,11,29,11,52,11.50
2012,11,29,11,53,11.60
2012,11,29,11,54,11.60
2012,11,29,11,55,11.60
2012,11,29,11,56,11.60
2012,11,29,11,57,11.60
2012,11,29,11,58,11.60
2012,11,29,11,59,11.60
2012,11,29,12,00,11.60
2012,11,29,12,01,11.60
2012,11,29,12,02,11.60
2012,11,29,12,03,11.60
2012,11,29,12,04,11.60
2012,11,29,12,05,11.70
2012,11,29,12,06,11.70
2012,11,29,12,07,11.70
2012,11,29,12,08,11.70
2012,11,29,12,09,11.70
2012,11,29,12,10,11.80
2012,11,29,12,11,11.80
2012,11,29,12,12,11.80
2012,11,29,12,13,11.80
2012,11,29,12,14,11.90
2012,11,29,12,15,12.00
2012,11,29,12,16,12.00
2012,11,29,12,17,12.10
2012,11,29,12,18,12.20
2012,11,29,12,19,12.20
2012,11,29,12,20,12.20
2012,11,29,12,21,12.30
2012,11,29,12,22,12.30
2012,11,29,12,23,12.30
2012,11,29,12,24,12.40
2012,11,29,12,25,12.40
2012,11,29,12,26,12.40
2012,11,29,12,27,12.50
2012,11,29,12,28,12.50
2012,11,29,12,29,12.50
2012,11,29,12,30,12.50
2012,11,29,12,31,12.50
2012,11,29,12,32,12.40
2012,11,29,12,33,12.40
2012,11,29,12,34,12.40
2012,11,29,12,35,12.40
2012,11,29,12,36,12.30
2012,11,29,12,37,12.20
2012,11,29,12,38,12.20
2012,11,29,12,39,12.10
2012,11,29,12,40,12.10
2012,11,29,12,41,12.00
2012,11,29,12,42,12.00
2012,11,29,12,43,12.00
2012,11,29,12,44,12.00
2012,11,29,12,45,12.00
2012,11,29,12,46,12.00
2012,11,29,12,47,11.90
2012,11,29,12,48,11.90
2012,11,29,12,49,11.90
2012,11,29,12,50,12.00
2012,11,29,12,51,12.00
2012,11,29,12,52,12.00
2012,11,29,12,53,12.00
2012,11,29,12,54,12.10
2012,11,29,12,55,12.10
2012,11,29,12,56,12.10
2012,11,29,12,57,12.10
2012,11,29,12,58,12.00
2012,11,29,12,59,11.90
2012,11,29,13,00,11.90
2012,11,29,13,01,11.80
2012,11,29,13,02,11.80
2012,11,29,13,03,11.80
2012,11,29,13,04,11.80
2012,11,29,13,05,11.80
2012,11,29,13,06,11.80
2012,11,29,13,07,11.80
2012,11,29,13,08,11.70
2012,11,29,13,09,11.70
2012,11,29,13,10,11.70
2012,11,29,13,11,11.60
2012,11,29,13,12,11.60
2012,11,29,13,13,11.50
2012,11,29,13,14,11.40
2012,11,29,13,15,11.40
2012,11,29,13,16,11.30
2012,11,29,13,17,11.30
2012,11,29,13,18,11.30
2012,11,29,13,19,11.30
2012,11,29,13,20,11.20
2012,11,29,13,21,11.20
2012,11,29,13,22,11.20
2012,11,29,13,23,11.10
2012,11,29,13,24,11.10
2012,11,29,13,25,11.10
2012,11,29,13,26,11.10
2012,11,29,13,27,11.10
2012,11,29,13,28,11.10
2012,11,29,13,29,11.10
2012,11,29,13,30,11.10
2012,11,29,13,31,11.10
2012,11,29,13,32,11.10
2012,11,29,13,33,11.10
2012,11,29,13,34,11.00
2012,11,29,13,35,11.00
2012,11,29,13,36,11.00
2012,11,29,13,37,11.00
2012,11,29,13,38,11.00
2012,11,29,13,39,11.00
2012,11,29,13,40,11.00
2012,11,29,13,41,11.00
2012,11,29,13,42,10.90
2012,11,29,13,43,10.90
2012,11,29,13,44,10.90
2012,11,29,13,45,10.90
2012,11,29,13,46,10.90
2012,11,29,13,47,10.90
2012,11,29,13,48,10.90
2012,11,29,13,49,10.90
2012,11,29,13,50,10.90
2012,11,29,13,51,10.90
2012,11,29,13,52,10.90
2012,11,29,13,53,10.90
2012,11,29,13,54,10.90
2012,11,29,13,55,10.90
2012,11,29,13,56,10.90
2012,11,29,13,57,10.90
2012,11,29,13,58,10.90
2012,11,29,13,59,10.90
2012,11,29,14,00,10.90
2012,11,29,14,01,10.90
2012,11,29,14,02,10.90
2012,11,29,14,03,10.90
2012,11,29,14,04,10.90
2012,11,29,14,05,10.90
2012,11,29,14,06,10.80
2012,11,29,14,07,10.80
2012,11,29,14,08,10.80
2012,11,29,14,09,10.80
2012,11,29,14,10,10.80
2012,11,29,14,11,10.80
2012,11,29,14,12,10.70
2012,11,29,14,13,10.70
2012,11,29,14,14,10.70
2012,11,29,14,15,10.70
2012,11,29,14,16,10.70
2012,11,29,14,17,10.70
2012,11,29,14,18,10.70
2012,11,29,14,19,10.70
2012,11,29,14,20,10.70
2012,11,29,14,21,10.70
2012,11,29,14,22,10.70
2012,11,29,14,23,10.70
2012,11,29,14,24,10.70
2012,11,29,14,25,10.70
2012,11,29,14,26,10.70
2012,11,29,14,27,10.70
2012,11,29,14,28,10.60
2012,11,29,14,29,10.60
2012,11,29,14,30,10.60
2012,11,29,14,31,10.60
2012,11,29,14,32,10.60
2012,11,29,14,33,10.50
2012,11,29,14,34,10.50
2012,11,29,14,35,10.50
2012,11,29,14,36,10.40
2012,11,29,14,37,10.40
2012,11,29,14,38,10.40
2012,11,29,14,39,10.40
2012,11,29,14,40,10.40
2012,11,29,14,41,10.40
2012,11,29,14,42,10.40
2012,11,29,14,43,10.40
2012,11,29,14,44,10.40
2012,11,29,14,45,10.30
2012,11,29,14,46,10.30
2012,11,29,14,47,10.30
2012,11,29,14,48,10.30
2012,11,29,14,49,10.30
2012,11,29,14,50,10.30
2012,11,29,14,51,10.30
2012,11,29,14,52,10.30
2012,11,29,14,53,10.30
2012,11,29,14,54,10.30
2012,11,29,14,55,10.40
2012,11,29,14,56,10.40
2012,11,29,14,57,10.40
2012,11,29,14,58,10.40
2012,11,29,14,59,10.40
2012,11,29,15,00,10.40
2012,11,29,15,01,10.40
2012,11,29,15,02,10.40
2012,11,29,15,03,10.40
2012,11,29,15,04,10.40
2012,11,29,15,05,10.50
2012,11,29,15,06,10.50
2012,11,29,15,07,10.50
2012,11,29,15,08,10.50
2012,11,29,15,09,10.50
2012,11,29,15,10,10.50
2012,11,29,15,11,10.50
2012,11,29,15,12,10.40
2012,11,29,15,13,10.40
2012,11,29,15,14,10.40
2012,11,29,15,15,10.40
2012,11,29,15,16,10.40
2012,11,29,15,17,10.40
2012,11,29,15,18,10.40
2012,11,29,15,19,10.40
2012,11,29,15,20,10.40
2012,11,29,15,21,10.40
2012,11,29,15,22,10.40
2012,11,29,15,23,10.40
2012,11,29,15,24,10.40
2012,11,29,15,25,10.40
2012,11,29,15,26,10.40
2012,11,29,15,27,10.40
2012,11,29,15,28,10.40
2012,11,29,15,29,10.30
2012,11,29,15,30,10.30
2012,11,29,15,31,10.30
2012,11,29,15,32,10.30
2012,11,29,15,33,10.30
2012,11,29,15,34,10.20
2012,11,29,15,35,10.20
2012,11,29,15,36,10.20
2012,11,29,15,37,10.20
2012,11,29,15,38,10.20
2012,11,29,15,39,10.20
2012,11,29,15,40,10.10
2012,11,29,15,41,10.10
2012,11,29,15,42,10.10
2012,11,29,15,43,10.10
2012,11,29,15,44,10.10
2012,11,29,15,45,10.00
2012,11,29,15,46,10.00
2012,11,29,15,47,10.00
2012,11,29,15,48,10.00
2012,11,29,15,49,10.00
2012,11,29,15,50,10.00
2012,11,29,15,51,10.00
2012,11,29,15,52,10.00
2012,11,29,15,53,10.00
2012,11,29,15,54,9.90
2012,11,29,15,55,9.90
2012,11,29,15,56,9.90
2012,11,29,15,57,9.90
2012,11,29,15,58,9.90
2012,11,29,15,59,9.90
2012,11,29,16,00,9.90
2012,11,29,16,01,9.90
2012,11,29,16,02,9.90
2012,11,29,16,03,9.90
2012,11,29,16,04,9.90
2012,11,29,16,05,9.90
2012,11,29,16,06,9.90
2012,11,29,16,07,9.90
2012,11,29,16,08,9.90
2012,11,29,16,09,9.90
2012,11,29,16,10,9.80
2012,11,29,16,11,9.80
2012,11,29,16,12,9.80
2012,11,29,16,13,9.80
2012,11,29,16,14,9.80
2012,11,29,16,15,9.80
2012,11,29,16,16,9.80
2012,11,29,16,17,9.80
2012,11,29,16,18,9.80
2012,11,29,16,19,9.80
2012,11,29,16,20,9.80
2012,11,29,16,21,9.80
2012,11,29,16,22,9.80
2012,11,29,16,23,9.80
2012,11,29,16,24,9.80
2012,11,29,16,25,9.80
2012,11,29,16,26,9.80
2012,11,29,16,27,9.80
2012,11,29,16,28,9.80
2012,11,29,16,29,9.80
2012,11,29,16,30,9.80
2012,11,29,16,31,9.70
2012,11,29,16,32,9.70
2012,11,29,16,33,9.70
2012,11,29,16,34,9.70
2012,11,29,16,35,9.70
2012,11,29,16,36,9.70
2012,11,29,16,37,9.70
2012,11,29,16,38,9.70
2012,11,29,16,39,9.70
2012,11,29,16,40,9.70
2012,11,29,16,41,9.70
2012,11,29,16,42,9.70
2012,11,29,16,43,9.70
2012,11,29,16,44,9.70
2012,11,29,16,45,9.70
2012,11,29,16,46,9.70
2012,11,29,16,47,9.70
2012,11,29,16,48,9.70
2012,11,29,16,49,9.70
2012,11,29,16,50,9.70
2012,11,29,16,51,9.70
2012,11,29,16,52,9.60
2012,11,29,16,53,9.60
2012,11,29,16,54,9.60
2012,11,29,16,55,9.60
2012,11,29,16,56,9.60
2012,11,29,16,57,9.60
2012,11,29,16,58,9.60
2012,11,29,16,59,9.60
2012,11,29,17,00,9.60
2012,11,29,17,01,9.60
2012,11,29,17,02,9.60
2012,11,29,17,03,9.60
2012,11,29,17,04,9.60
2012,11,29,17,05,9.60
2012,11,29,17,06,9.60
2012,11,29,17,07,9.60
2012,11,29,17,08,9.60
2012,11,29,17,09,9.60
2012,11,29,17,10,9.60
2012,11,29,17,11,9.60
2012,11,29,17,12,9.60
2012,11,29,17,13,9.60
2012,11,29,17,14,9.60
2012,11,29,17,15,9.60
2012,11,29,17,16,9.60
2012,11,29,17,17,9.60
2012,11,29,17,18,9.60
2012,11,29,17,19,9.60
2012,11,29,17,20,9.60
2012,11,29,17,21,9.60
2012,11,29,17,22,9.60
2012,11,29,17,23,9.60
2012,11,29,17,24,9.60
2012,11,29,17,25,9.50
2012,11,29,17,26,9.50
2012,11,29,17,27,9.50
2012,11,29,17,28,9.50
2012,11,29,17,29,9.50
2012,11,29,17,30,9.50
2012,11,29,17,31,9.50
2012,11,29,17,32,9.50
2012,11,29,17,33,9.50
2012,11,29,17,34,9.50
2012,11,29,17,35,9.50
2012,11,29,17,36,9.50
2012,11,29,17,37,9.50